Weather History for Osceola, WI

Change the Weather History Date:

Sunday, April 14, 2013

  Actual Average (KMSP) Record (KMSP)
Temperature  
Mean Temperature 26 °F 47 °F  
Max Temperature 33 °F 57 °F 89 °F (2003)
Min Temperature 19 °F 37 °F 18 °F (1928)
Degree Days  
Heating Degree Days 39 18  
Month to date heating degree days 301  
Since 1 July heating degree days 7089  
Cooling Degree Days 0 0  
Month to date cooling degree days 0  
Year to date cooling degree days 0  
Moisture  
Dew Point 27 °F    
Average Humidity 87    
Maximum Humidity 100    
Minimum Humidity 69    
Precipitation  
Precipitation 0.32 in 0.09 in 1.56 in (1983)
Month to date precipitation 1.11  
Year to date precipitation 4.67  
Snow  
Snow 0.00 in 0.10 in 13.60 in (1983)
Month to date snowfall 1.5  
Since 1 July snowfall 53.5  
Snow Depth -    
Sea Level Pressure  
Sea Level Pressure 29.78 in    
Wind  
Wind Speed 8 mph (East)    
Max Wind Speed 23 mph    
Max Gust Speed 29 mph    
Visibility 8 miles    
Events Snow    
T = Trace of Precipitation, MM = Missing Value Source: NWS Daily Summary

Daily Weather History Graph

Daily Weather History Graph

Search for Another Location

Airport:

Trip Planner

Search our weather history database for the weather conditions in past years. The results will help you decide how hot, cold, wet, or windy it might be!

Date:

Astronomy

Apr. 14, 2013 Rise Set
Actual Time 6:26 AM CDT 7:55 PM CDT
Civil Twilight 5:56 AM CDT 8:26 PM CDT
Nautical Twilight 5:18 AM CDT 9:04 PM CDT
Astronomical Twilight 4:39 AM CDT 9:44 PM CDT
Moon 8:55 AM CDT (4/14) No Moon Set
Length of Visible Light 14h 30m
Length of Day
13h 28m
Waxing Crescent, 17% of the Moon is Illuminated
Apr 14
Waxing Crescent
Apr 18
First Quarter
Apr 25
Full
May 2
Last Quarter
May 9
New

Hourly Weather History & Observations

Time (CDT) Temp. Windchill Dew Point Humidity Pressure Visibility Wind Dir Wind Speed Gust Speed Precip Events Conditions
12:15 AM 19.4 °F - 17.6 °F 93% 29.99 in 10.0 mi Calm Calm - N/A   Clear
12:35 AM 19.4 °F 14.3 °F 17.6 °F 93% 29.99 in 10.0 mi NE 3.5 mph - N/A   Clear
12:55 AM 21.2 °F - 17.6 °F 86% 29.99 in 10.0 mi Calm Calm - N/A   Clear
1:15 AM 19.4 °F - 17.6 °F 93% 29.99 in 10.0 mi Calm Calm - N/A   Clear
1:35 AM 19.4 °F 12.8 °F 17.6 °F 93% 29.99 in 10.0 mi East 4.6 mph - N/A   Clear
1:55 AM 19.4 °F - 19.4 °F 100% 29.98 in 10.0 mi Calm Calm - N/A   Clear
2:15 AM 21.2 °F 16.4 °F 19.4 °F 93% 29.97 in 10.0 mi NE 3.5 mph - N/A   Mostly Cloudy
2:35 AM 24.8 °F 17.9 °F 21.2 °F 86% 29.95 in 10.0 mi ENE 5.8 mph - N/A   Overcast
2:55 AM 26.6 °F 21.2 °F 21.2 °F 80% 29.94 in 10.0 mi East 4.6 mph - N/A   Overcast
3:15 AM 26.6 °F 19.1 °F 21.2 °F 80% 29.94 in 10.0 mi East 6.9 mph - N/A   Mostly Cloudy
3:35 AM 26.6 °F 21.2 °F 21.2 °F 80% 29.94 in 10.0 mi East 4.6 mph - N/A   Mostly Cloudy
3:55 AM 26.6 °F 22.6 °F 21.2 °F 80% 29.94 in 10.0 mi ESE 3.5 mph - N/A   Overcast
4:15 AM 26.6 °F 20.0 °F 21.2 °F 80% 29.95 in 10.0 mi East 5.8 mph - N/A   Overcast
4:35 AM 28.4 °F 20.4 °F 21.2 °F 74% 29.96 in 10.0 mi East 8.1 mph - N/A   Overcast
4:55 AM 28.4 °F 21.2 °F 21.2 °F 74% 29.94 in 10.0 mi East 6.9 mph - N/A   Overcast
5:15 AM 30.2 °F 24.3 °F 21.2 °F 69% 29.94 in 10.0 mi East 5.8 mph - N/A   Overcast
5:35 AM 30.2 °F 23.4 °F 21.2 °F 69% 29.94 in 10.0 mi East 6.9 mph - N/A   Overcast
5:55 AM 30.2 °F 23.4 °F 21.2 °F 69% 29.94 in 10.0 mi ENE 6.9 mph - N/A   Overcast
6:15 AM 30.2 °F 23.4 °F 21.2 °F 69% 29.94 in 10.0 mi East 6.9 mph - N/A   Overcast
6:35 AM 30.2 °F 22.6 °F 21.2 °F 69% 29.94 in 10.0 mi East 8.1 mph - N/A   Overcast
6:55 AM 30.2 °F 23.4 °F 21.2 °F 69% 29.93 in 10.0 mi East 6.9 mph - N/A   Overcast
7:15 AM 30.2 °F 21.3 °F 21.2 °F 69% 29.92 in 10.0 mi East 10.4 mph - N/A Snow Light Snow
7:35 AM 30.2 °F 22.6 °F 23.0 °F 75% 29.92 in 5.0 mi East 8.1 mph - N/A Snow Light Snow
7:55 AM 30.2 °F 20.8 °F 23.0 °F 75% 29.91 in 4.0 mi East 11.5 mph - N/A Snow Light Snow
8:15 AM 32.0 °F 24.2 °F 24.8 °F 75% 29.90 in 10.0 mi ESE 9.2 mph - N/A   Overcast
8:35 AM 32.0 °F 22.1 °F 24.8 °F 75% 29.88 in 10.0 mi East 13.8 mph 17.3 mph N/A Snow Light Snow
8:55 AM 32.0 °F 21.6 °F 24.8 °F 75% 29.87 in 10.0 mi East 15.0 mph 21.9 mph N/A Snow Light Snow
9:15 AM 32.0 °F 21.2 °F 24.8 °F 75% 29.86 in 10.0 mi East 16.1 mph 20.7 mph N/A   Overcast
9:35 AM 32.0 °F 20.8 °F 23.0 °F 69% 29.85 in 10.0 mi East 17.3 mph 21.9 mph N/A   Overcast
9:55 AM 32.0 °F 20.8 °F 24.8 °F 75% 29.84 in 10.0 mi East 17.3 mph 23.0 mph N/A   Overcast
10:15 AM 32.0 °F 21.2 °F 24.8 °F 75% 29.83 in 10.0 mi East 16.1 mph 21.9 mph N/A   Overcast
10:35 AM 32.0 °F 21.2 °F 26.6 °F 80% 29.82 in 10.0 mi East 16.1 mph 28.8 mph N/A   Overcast
10:55 AM 32.0 °F 22.1 °F 26.6 °F 80% 29.81 in 10.0 mi East 13.8 mph 26.5 mph N/A   Overcast
11:15 AM 32.0 °F 21.2 °F 26.6 °F 80% 29.80 in 10.0 mi East 16.1 mph 19.6 mph N/A   Overcast
11:35 AM 32.0 °F 19.8 °F 28.4 °F 87% 29.79 in 10.0 mi East 20.7 mph 26.5 mph N/A Snow Light Snow
11:55 AM 32.0 °F 20.1 °F 28.4 °F 87% 29.80 in 7.0 mi East 19.6 mph 27.6 mph N/A Snow Light Snow
12:15 PM 32.0 °F 19.2 °F 28.4 °F 87% 29.80 in 2.5 mi East 23.0 mph 28.8 mph N/A Snow Light Snow
12:35 PM 32.0 °F 20.1 °F 30.2 °F 93% 29.80 in 0.5 mi East 19.6 mph 27.6 mph N/A Snow Snow
12:55 PM 32.0 °F 21.6 °F 30.2 °F 93% 29.79 in 0.8 mi East 15.0 mph 25.3 mph N/A Snow Light Snow
1:15 PM 32.0 °F 20.5 °F 30.2 °F 93% 29.77 in 1.2 mi East 18.4 mph - N/A Snow Light Snow
1:35 PM 32.0 °F 21.6 °F 30.2 °F 93% 29.75 in 2.5 mi East 15.0 mph 20.7 mph N/A Snow Light Snow
1:55 PM 32.0 °F 20.5 °F 30.2 °F 93% 29.73 in 5.0 mi East 18.4 mph 25.3 mph N/A Snow Light Snow
2:15 PM 32.0 °F 20.5 °F 30.2 °F 93% 29.71 in 5.0 mi East 18.4 mph 25.3 mph N/A Snow Light Snow
2:35 PM 32.0 °F 21.2 °F 30.2 °F 93% 29.71 in 4.0 mi East 16.1 mph 25.3 mph 0.02 in Snow Light Snow
2:55 PM 32.0 °F 22.1 °F 30.2 °F 93% 29.71 in 3.0 mi East 13.8 mph 18.4 mph 0.05 in Snow Light Snow
3:15 PM 32.0 °F 23.6 °F 30.2 °F 93% 29.70 in 2.5 mi East 10.4 mph 20.7 mph 0.01 in Snow Light Snow
3:35 PM 32.0 °F 23.6 °F 30.2 °F 93% 29.68 in 7.0 mi East 10.4 mph 17.3 mph 0.03 in Snow Light Snow
3:55 PM 32.0 °F 24.2 °F 32.0 °F 100% 29.66 in 4.0 mi East 9.2 mph - 0.04 in   Overcast
4:15 PM 32.0 °F 24.2 °F 30.2 °F 93% 29.65 in 5.0 mi East 9.2 mph - N/A Snow Light Snow
4:35 PM 32.0 °F 24.8 °F 30.2 °F 93% 29.62 in 7.0 mi East 8.1 mph - 0.01 in Snow Light Snow
4:55 PM 32.0 °F 24.8 °F 32.0 °F 100% 29.63 in 7.0 mi East 8.1 mph - 0.02 in   Overcast
5:15 PM 32.0 °F 24.8 °F 32.0 °F 100% 29.62 in 3.0 mi East 8.1 mph - 0.01 in Snow Light Snow
5:35 PM 33.8 °F 28.6 °F 32.0 °F 93% 29.61 in 4.0 mi East 5.8 mph - 0.03 in Snow Light Snow
5:55 PM 33.8 °F 27.7 °F 32.0 °F 93% 29.59 in 10.0 mi East 6.9 mph - 0.05 in Snow Light Snow
6:15 PM 33.8 °F 27.7 °F 32.0 °F 93% 29.59 in 4.0 mi East 6.9 mph - 0.01 in   Overcast
6:55 PM 32.0 °F 26.4 °F 32.0 °F 100% 29.58 in 3.0 mi East 5.8 mph - 0.03 in Snow Light Snow
7:15 PM 33.8 °F 28.6 °F 32.0 °F 93% 29.58 in 7.0 mi East 5.8 mph - 0.01 in Snow Light Snow
7:35 PM 33.8 °F 29.6 °F 32.0 °F 93% 29.58 in 7.0 mi East 4.6 mph - 0.03 in   Overcast
7:55 PM 33.8 °F 27.7 °F 32.0 °F 93% 29.56 in 7.0 mi East 6.9 mph - 0.06 in Snow Light Snow
8:15 PM 33.8 °F 28.6 °F 32.0 °F 93% 29.56 in 7.0 mi East 5.8 mph - 0.02 in Snow Light Snow
8:35 PM 33.8 °F 28.6 °F 32.0 °F 93% 29.56 in 10.0 mi East 5.8 mph - 0.03 in   Overcast
8:55 PM 33.8 °F 28.6 °F 32.0 °F 93% 29.56 in 10.0 mi East 5.8 mph - 0.04 in   Overcast
9:15 PM 33.8 °F 27.7 °F 32.0 °F 93% 29.55 in 5.0 mi East 6.9 mph - 0.02 in   Overcast
9:35 PM 33.8 °F 23.9 °F 32.0 °F 93% 29.56 in 10.0 mi ESE 15.0 mph 20.7 mph 0.03 in Snow Light Snow
9:55 PM 33.8 °F 26.4 °F 32.0 °F 93% 29.58 in 10.0 mi SE 9.2 mph 17.3 mph 0.03 in   Overcast
10:15 PM 33.8 °F 24.3 °F 32.0 °F 93% 29.58 in 10.0 mi ESE 13.8 mph - N/A   Overcast
10:35 PM 33.8 °F 24.3 °F 32.0 °F 93% 29.57 in 7.0 mi SE 13.8 mph 18.4 mph N/A   Overcast
10:55 PM 33.8 °F 24.8 °F 32.0 °F 93% 29.56 in 10.0 mi ESE 12.7 mph - N/A   Overcast
11:15 PM 33.8 °F 24.8 °F 32.0 °F 93% 29.56 in 10.0 mi ESE 12.7 mph 18.4 mph N/A   Overcast
11:35 PM 33.8 °F 27.0 °F 33.8 °F 100% 29.56 in 10.0 mi SE 8.1 mph - N/A   Overcast
11:55 PM 33.8 °F 27.0 °F 33.8 °F 100% 29.56 in 10.0 mi SE 8.1 mph - N/A   Overcast